When you browse on this site, cookies collect data to enhance your experience and personalize the content and advertising you see.
Visit our Privacy Policy to learn more. By continuing to use the site, you agree to this use of cookies and data.
  • In Latvia
  • List of Countries
  • For 7 days
  • Water Temperature
  • Satellite Maps
  • Weather Map
  • Weather Widgets
  • user-avatar
    Login

    Hourly Weather Namyur

    Today, 20 July, Saturday

    Time Temperature Precipitation Wind Pressure Humidity
    00:00 +18°C° 0 mm 3 mps 749 mmHg 91%
    01:00 +18°C° 0 mm 3 mps 748 mmHg 90%
    02:00 +18°C° 0 mm 4 mps 748 mmHg 90%
    03:00 +18°C° 0 mm 4 mps 747 mmHg 89%
    04:00 +19°C° 0 mm 4 mps 747 mmHg 86%
    05:00 +20°C° 0 mm 5 mps 747 mmHg 82%
    06:00 +21°C° 0 mm 4 mps 747 mmHg 76%
    07:00 +22°C° 0.4 mm 4 mps 747 mmHg 75%
    08:00 +22°C° 0.4 mm 5 mps 747 mmHg 74%
    09:00 +23°C° 0.4 mm 5 mps 747 mmHg 72%
    10:00 +24°C° 0.2 mm 6 mps 747 mmHg 68%
    11:00 +26°C° 0.2 mm 7 mps 748 mmHg 65%
    12:00 +27°C° 0 mm 6 mps 748 mmHg 63%
    13:00 +27°C° 0.7 mm 7 mps 748 mmHg 64%
    14:00 +26°C° 0.7 mm 7 mps 748 mmHg 65%
    15:00 +26°C° 0.7 mm 8 mps 748 mmHg 66%
    16:00 +24°C° 0.1 mm 7 mps 748 mmHg 68%
    17:00 +24°C° 0.1 mm 6 mps 749 mmHg 70%
    18:00 +23°C° 0.1 mm 5 mps 749 mmHg 72%
    19:00 +21°C° 0 mm 5 mps 749 mmHg 75%
    20:00 +19°C° 0 mm 4 mps 750 mmHg 78%
    21:00 +18°C° 0 mm 4 mps 751 mmHg 81%
    22:00 +17°C° 0 mm 3 mps 751 mmHg 85%
    23:00 +16°C° 0 mm 3 mps 751 mmHg 89%

    Tomorrow, 21 July, Sunday

    Time Temperature Precipitation Wind Pressure Humidity
    00:00 +14°C° 0 mm 3 mps 752 mmHg 92%
    01:00 +14°C° 0 mm 3 mps 752 mmHg 93%
    02:00 +13°C° 0 mm 3 mps 752 mmHg 94%
    03:00 +13°C° 0 mm 3 mps 753 mmHg 95%
    04:00 +14°C° 0 mm 3 mps 753 mmHg 93%
    05:00 +14°C° 0 mm 3 mps 753 mmHg 91%
    06:00 +15°C° 0 mm 4 mps 754 mmHg 90%
    07:00 +18°C° 0 mm 4 mps 754 mmHg 82%
    08:00 +19°C° 0 mm 4 mps 755 mmHg 74%
    09:00 +21°C° 0 mm 4 mps 756 mmHg 67%
    10:00 +22°C° 0 mm 4 mps 756 mmHg 63%
    11:00 +22°C° 0 mm 4 mps 756 mmHg 59%
    12:00 +23°C° 0 mm 4 mps 756 mmHg 55%
    13:00 +23°C° 0 mm 4 mps 756 mmHg 54%
    14:00 +25°C° 0 mm 4 mps 756 mmHg 53%
    15:00 +25°C° 0 mm 3 mps 756 mmHg 52%
    16:00 +25°C° 0 mm 3 mps 756 mmHg 56%
    17:00 +24°C° 0 mm 2 mps 756 mmHg 60%
    18:00 +23°C° 0 mm 2 mps 756 mmHg 64%
    19:00 +21°C° 0 mm 2 mps 756 mmHg 69%
    20:00 +20°C° 0 mm 1 mps 757 mmHg 74%
    21:00 +18°C° 0 mm 1 mps 757 mmHg 79%
    22:00 +18°C° 0 mm 1 mps 757 mmHg 79%
    23:00 +16°C° 0 mm 1 mps 757 mmHg 80%

    Day after tomorrow, 22 July, Monday

    Time Temperature Precipitation Wind Pressure Humidity
    00:00 +16°C° 0 mm 1 mps 757 mmHg 81%
    01:00 +16°C° 0 mm 1 mps 757 mmHg 83%
    02:00 +15°C° 0 mm 1 mps 757 mmHg 84%
    03:00 +15°C° 0 mm 2 mps 757 mmHg 86%
    04:00 +16°C° 0 mm 2 mps 757 mmHg 83%
    05:00 +17°C° 0 mm 2 mps 757 mmHg 80%
    06:00 +19°C° 0 mm 1 mps 757 mmHg 76%
    07:00 +20°C° 0 mm 2 mps 757 mmHg 71%
    08:00 +23°C° 0 mm 2 mps 758 mmHg 65%
    09:00 +25°C° 0 mm 2 mps 758 mmHg 59%
    10:00 +26°C° 0 mm 2 mps 758 mmHg 56%
    11:00 +27°C° 0 mm 2 mps 757 mmHg 53%
    12:00 +28°C° 0 mm 2 mps 757 mmHg 50%
    13:00 +28°C° 0 mm 2 mps 757 mmHg 49%
    14:00 +28°C° 0 mm 2 mps 757 mmHg 48%
    15:00 +29°C° 0 mm 2 mps 756 mmHg 46%
    16:00 +28°C° 0 mm 2 mps 756 mmHg 51%
    17:00 +28°C° 0 mm 1 mps 756 mmHg 55%
    18:00 +27°C° 0 mm 1 mps 756 mmHg 59%
    19:00 +25°C° 0 mm 1 mps 756 mmHg 65%
    20:00 +23°C° 0 mm 1 mps 757 mmHg 70%
    21:00 +19°C° 0 mm 0 mps 757 mmHg 75%
    22:00 +20°C° 0 mm 1 mps 757 mmHg 77%
    23:00 +20°C° 0 mm 1 mps 756 mmHg 78%

    23 July, Tuesday

    Time Temperature Precipitation Wind Pressure Humidity
    00:00 +19°C° 0 mm 1 mps 756 mmHg 80%
    01:00 +19°C° 0 mm 1 mps 756 mmHg 81%
    02:00 +19°C° 0 mm 1 mps 756 mmHg 82%
    03:00 +19°C° 0 mm 1 mps 756 mmHg 82%
    04:00 +20°C° 0 mm 1 mps 755 mmHg 79%
    05:00 +21°C° 0 mm 1 mps 755 mmHg 76%
    06:00 +22°C° 0 mm 1 mps 755 mmHg 73%
    07:00 +24°C° 0 mm 2 mps 755 mmHg 65%
    08:00 +26°C° 0 mm 2 mps 755 mmHg 58%
    09:00 +28°C° 0 mm 2 mps 755 mmHg 50%
    10:00 +29°C° 0 mm 2 mps 754 mmHg 46%
    11:00 +31°C° 0 mm 2 mps 754 mmHg 41%
    12:00 +32°C° 0 mm 2 mps 754 mmHg 37%
    13:00 +32°C° 0 mm 2 mps 753 mmHg 37%
    14:00 +34°C° 0 mm 2 mps 753 mmHg 36%
    15:00 +34°C° 0 mm 2 mps 753 mmHg 36%
    16:00 +32°C° 0 mm 2 mps 752 mmHg 42%
    17:00 +31°C° 0 mm 2 mps 752 mmHg 48%
    18:00 +30°C° 0 mm 2 mps 752 mmHg 53%
    19:00 +28°C° 0 mm 2 mps 752 mmHg 57%
    20:00 +26°C° 0 mm 2 mps 752 mmHg 61%
    21:00 +24°C° 0 mm 2 mps 752 mmHg 65%
    22:00 +24°C° 0 mm 3 mps 752 mmHg 66%
    23:00 +22°C° 0 mm 3 mps 752 mmHg 67%

    24 July, Wednesday

    Time Temperature Precipitation Wind Pressure Humidity
    00:00 +22°C° 0 mm 3 mps 752 mmHg 68%
    01:00 +22°C° 0 mm 3 mps 751 mmHg 69%
    02:00 +21°C° 0 mm 3 mps 751 mmHg 70%
    03:00 +21°C° 0 mm 2 mps 751 mmHg 70%
    04:00 +22°C° 0 mm 3 mps 751 mmHg 69%
    05:00 +24°C° 0 mm 3 mps 751 mmHg 68%
    06:00 +25°C° 0 mm 3 mps 751 mmHg 67%
    07:00 +28°C° 0 mm 3 mps 751 mmHg 61%
    08:00 +30°C° 0 mm 3 mps 751 mmHg 56%
    09:00 +33°C° 0 mm 4 mps 751 mmHg 50%
    10:00 +34°C° 0 mm 3 mps 751 mmHg 46%
    11:00 +36°C° 0 mm 3 mps 751 mmHg 42%
    12:00 +37°C° 0 mm 3 mps 751 mmHg 38%
    13:00 +37°C° 0 mm 3 mps 751 mmHg 38%
    14:00 +38°C° 0 mm 2 mps 750 mmHg 37%
    15:00 +38°C° 0 mm 2 mps 750 mmHg 37%
    16:00 +37°C° 0 mm 2 mps 750 mmHg 42%
    17:00 +36°C° 0 mm 2 mps 750 mmHg 47%
    18:00 +34°C° 0 mm 1 mps 750 mmHg 51%
    19:00 +32°C° 0 mm 2 mps 750 mmHg 55%
    20:00 +30°C° 0 mm 2 mps 750 mmHg 59%
    21:00 +28°C° 0 mm 2 mps 750 mmHg 62%
    22:00 +28°C° 0 mm 3 mps 750 mmHg 61%
    23:00 +27°C° 0 mm 3 mps 750 mmHg 60%

    25 July, Thursday

    Time Temperature Precipitation Wind Pressure Humidity
    00:00 +26°C° 0 mm 3 mps 750 mmHg 58%
    01:00 +26°C° 0 mm 3 mps 750 mmHg 59%
    02:00 +26°C° 0 mm 3 mps 749 mmHg 60%
    03:00 +25°C° 0 mm 3 mps 749 mmHg 61%
    04:00 +26°C° 0 mm 3 mps 749 mmHg 62%
    05:00 +26°C° 0 mm 3 mps 749 mmHg 62%
    06:00 +27°C° 0 mm 3 mps 749 mmHg 63%
    07:00 +29°C° 0 mm 4 mps 749 mmHg 57%
    08:00 +33°C° 0 mm 4 mps 749 mmHg 51%
    09:00 +35°C° 0 mm 4 mps 749 mmHg 46%
    10:00 +36°C° 0 mm 4 mps 749 mmHg 41%
    11:00 +37°C° 0 mm 4 mps 748 mmHg 37%
    12:00 +39°C° 0 mm 3 mps 748 mmHg 33%
    13:00 +39°C° 0 mm 3 mps 748 mmHg 32%
    14:00 +39°C° 0 mm 3 mps 747 mmHg 31%
    15:00 +40°C° 0 mm 3 mps 747 mmHg 30%
    16:00 +38°C° 0 mm 3 mps 747 mmHg 36%
    17:00 +37°C° 0 mm 3 mps 747 mmHg 41%
    18:00 +36°C° 0 mm 2 mps 747 mmHg 47%
    19:00 +32°C° 0.1 mm 4 mps 747 mmHg 55%
    20:00 +28°C° 0.1 mm 5 mps 748 mmHg 64%
    21:00 +24°C° 0.1 mm 7 mps 748 mmHg 73%
    22:00 +23°C° 0.1 mm 5 mps 748 mmHg 79%
    23:00 +22°C° 0.1 mm 3 mps 748 mmHg 85%
    Show more